Temp
17 16 14 16 15 16 17 16 15 16 17 16 16 17 17 17 17 17 18 18 17 16 18 20 22 23 23 23 22 21 21 21 20 19 21 21 21 21 20 20 20 20 19 19
16 14 16 16 16 16 16 15 14 15 17 16 16 17 18 17 17 18 17 16 16 17 17 18 19 21 22 23 23 21 20 19 20 19 21 21 21 21 20 20 20 19 19 19
15 17 17 17 17 16 15 15 15 16 17 17 16 16 18 19 18 17 15 13 13 13 15 16 17 18 20 21 22 22 20 20 19 19 19 20 19 18 17 18 18 18 18 18
15 16 18 16 16 16 15 16 16 16 16 15 17 15 17 18 17 15 13 12 12 12 13 14 15 15 15 19 20 21 20 19 18 19 19 21 18 17 18 18 18 18 18 18
16 17 17 17 17 17 16 18 17 17 15 15 16 14 14 16 17 12 11 12 12 12 12 13 14 14 15 17 19 20 19 18 18 18 19 19 18 18 18 18 17 17 17 17
15 15 15 14 15 16 15 16 15 15 14 14 15 15 14 15 11 10 11 12 12 12 12 13 13 13 13 16 17 18 19 18 17 17 18 18 18 17 17 17 16 16 16 16
15 14 12 13 14 15 14 15 12 13 13 14 15 14 15 11 11 11 11 11 12 12 12 13 13 13 13 13 15 17 17 16 16 17 17 18 18 18 18 17 17 16 16 16
13 13 11 11 12 12 12 12 12 13 11 12 13 13 13 11 11 11 12 12 12 12 12 12 13 13 13 12 14 15 15 15 15 15 17 17 17 18 19 19 18 17 17 17
10 12 11 12 12 12 12 11 11 11 10 9 11 13 11 11 10 11 11 12 11 12 12 12 13 12 13 12 12 13 13 14 14 15 16 17 17 16 17 17 17 17 16 16
10 11 10 11 12 11 11 11 11 10 9 10 10 11 12 9 9 10 10 11 11 11 11 12 12 12 12 12 12 13 13 13 13 14 15 16 16 16 16 16 16 15 15 15
9 10 10 10 9 8 9 9 8 9 8 8 10 11 10 8 9 9 9 10 11 11 11 11 12 12 11 12 13 13 13 14 14 14 14 15 15 15 16 15 15 15 15 15
9 8 9 9 8 8 9 8 7 6 7 6 4 7 10 7 8 9 9 10 11 12 12 11 12 11 11 11 12 12 13 14 13 14 15 14 14 14 14 14 14 15 15 14
8 7 7 7 8 8 7 7 7 5 4 3 4 7 9 9 9 9 9 9 9 10 11 11 11 11 11 11 11 12 12 13 13 13 13 13 13 13 13 13 13 13 13 13
10 6 7 8 7 4 4 5 5 4 1 1 5 6 7 7 7 7 8 8 7 9 10 11 10 11 11 11 11 12 12 12 12 12 12 12 12 12 12 12 12 12 12 12
8 6 6 7 7 6 6 6 5 2 2 2 5 4 5 6 7 7 8 8 8 8 9 10 10 10 10 11 11 11 12 12 12 12 11 11 12 11 11 12 12 11 11 11
5 5 5 5 5 5 6 6 6 6 5 3 4 5 7 7 6 6 7 7 7 8 9 10 10 10 10 11 10 10 12 12 12 12 11 11 11 11 11 11 11 10 10 10
5 4 3 3 3 4 5 6 6 6 5 5 5 7 6 6 6 6 7 7 7 8 9 10 10 10 10 10 10 10 11 11 12 11 11 11 11 11 11 10 10 10 10 10
3 4 2 1 3 3 7 6 7 6 7 6 6 6 6 6 6 7 7 7 7 7 8 9 9 9 9 9 9 9 11 11 11 11 11 11 10 11 10 10 10 10 10 10
4 4 -1 0 1 4 6 7 7 7 6 7 8 7 7 8 7 7 8 7 7 7 8 9 10 10 9 9 9 9 11 10 10 10 10 10 10 10 9 9 9 9 9 9
3 1 -0 -4 -1 3 6 7 8 7 5 8 8 7 7 7 7 7 7 8 8 9 9 9 9 9 9 9 10 9 11 10 10 10 10 10 10 10 9 9 9 9 8 8
-0 -3 -3 -1 -2 2 5 6 7 5 4 7 7 7 7 7 7 7 8 9 10 9 10 9 9 9 8 8 9 10 10 10 10 10 10 10 10 9 9 9 8 8 8 7
1 -2 -4 -3 -2 2 6 7 6 6 6 7 7 7 7 8 8 9 9 9 9 9 10 8 8 8 7 8 9 10 10 10 10 9 9 9 9 9 8 8 8 7 7 7
3 2 0 0 2 4 6 7 7 6 5 6 7 7 7 7 8 9 9 8 8 9 10 8 7 7 7 8 9 10 10 9 9 9 8 9 8 8 8 8 7 7 6 6
4 2 4 4 5 3 4 4 5 6 6 6 6 6 6 6 7 7 8 7 8 9 9 7 6 6 7 7 10 10 9 9 9 8 8 8 7 7 7 7 7 7 7 6
2 2 2 2 2 3 4 4 5 7 6 6 6 6 6 6 6 8 8 7 8 9 9 6 6 5 6 8 9 9 8 9 8 8 8 7 7 7 7 6 7 7 7 9
0 2 2 2 3 4 4 6 6 6 5 5 6 6 6 7 6 7 7 8 8 8 8 7 6 6 7 8 8 8 8 9 8 8 8 7 7 6 6 6 5 7 8 9
Height
779 790 794 787 787 788 788 794 798 791 781 785 783 772 767 760 759 755 747 743 741 738 728 722 718 717 719 721 722 725 729 733 738 743 748 754 757 762 766 769 773 775 777 780
789 793 782 780 783 787 790 795 797 784 774 780 778 767 762 758 753 749 753 751 745 737 727 720 716 714 711 712 713 716 720 725 728 735 741 746 751 756 762 765 770 774 776 778
799 786 777 782 785 792 794 794 790 787 774 771 774 768 757 751 749 749 753 757 752 748 737 724 715 712 710 706 705 707 711 715 721 727 735 741 748 754 760 764 767 772 775 777
792 782 778 782 782 784 794 781 779 779 783 788 770 789 763 756 753 758 759 760 756 751 741 729 721 711 708 703 703 703 705 710 717 721 727 731 737 747 752 757 764 770 773 777
787 782 782 781 779 776 781 770 776 777 783 782 778 790 769 759 753 768 768 763 758 752 746 734 724 717 708 704 703 701 704 706 711 716 723 727 735 742 747 755 765 768 772 776
787 783 788 788 782 778 777 777 779 779 788 795 776 781 775 766 778 780 773 765 759 751 743 735 727 721 714 707 705 705 702 706 708 716 719 724 731 739 746 753 760 767 770 774
789 792 796 794 789 783 784 783 803 796 798 787 773 781 769 783 784 786 784 772 761 753 745 737 728 721 718 711 710 708 709 708 710 710 719 724 731 737 743 749 755 762 767 771
798 797 803 799 797 799 795 795 799 797 802 796 783 780 772 783 782 783 782 776 763 756 751 744 739 731 724 719 716 714 712 712 715 717 715 722 734 738 742 746 752 758 764 768
806 800 801 800 798 796 798 804 802 805 810 814 794 777 779 778 778 777 776 774 769 763 759 753 744 737 732 730 722 718 716 716 718 719 720 721 735 742 743 748 753 757 762 765
802 802 808 799 797 801 803 804 802 810 825 807 797 789 774 791 786 783 780 776 774 769 762 755 753 748 743 737 730 725 721 719 720 723 725 727 732 743 748 749 752 758 762 765
802 807 807 802 810 817 814 815 815 815 824 826 808 788 787 794 789 789 784 779 775 771 769 764 759 755 749 741 735 730 728 723 724 727 730 729 733 747 746 750 755 760 763 765
806 809 812 816 816 817 813 819 821 831 832 839 852 816 785 795 790 785 782 778 773 769 766 765 760 755 752 745 738 735 731 729 730 730 733 736 742 746 748 753 756 761 763 766
802 814 821 823 818 816 820 822 821 833 845 852 851 809 785 785 785 778 776 778 774 769 764 761 757 754 751 747 740 736 733 733 730 731 733 739 744 745 749 754 758 762 764 767
801 817 810 809 812 829 834 829 829 840 866 860 826 809 805 801 797 788 779 777 774 769 763 756 753 753 752 747 740 733 734 733 733 734 736 740 743 746 750 755 759 762 764 767
806 817 819 812 812 817 822 818 824 845 841 847 817 820 803 796 790 781 775 771 769 763 759 756 751 752 746 742 737 734 732 732 733 735 739 741 745 749 752 755 759 761 764 768
814 821 823 823 821 819 816 813 816 818 822 831 821 810 796 787 782 776 769 766 763 758 749 746 747 747 744 739 736 734 727 729 733 734 740 742 746 749 752 756 758 761 765 767
815 823 833 836 830 824 820 808 809 808 811 812 815 796 793 785 778 766 759 758 756 751 745 742 739 737 732 732 732 730 729 727 730 734 740 743 747 749 753 757 758 763 766 768
820 824 833 848 833 841 803 801 800 804 801 802 802 796 790 781 769 759 750 748 744 742 741 738 736 733 734 732 730 731 728 722 730 734 739 743 746 749 754 757 760 765 767 770
816 820 856 853 847 823 797 796 796 797 797 794 789 783 780 770 763 754 745 738 733 734 737 737 737 735 730 724 726 726 727 726 728 733 739 743 747 750 755 758 762 765 769 772
821 829 843 872 861 832 801 793 791 795 802 788 784 781 778 771 767 761 749 741 733 732 734 734 734 729 723 722 721 723 717 721 727 734 739 742 746 751 756 759 762 767 771 775
839 857 861 855 868 827 800 792 791 811 811 785 780 780 776 774 770 764 755 745 740 736 734 733 732 728 724 721 719 716 716 719 726 733 738 743 747 752 756 759 764 770 773 779
821 849 863 862 865 829 789 790 797 793 786 783 778 776 774 768 762 754 749 744 740 735 733 733 728 722 717 714 716 712 715 719 725 732 739 743 748 752 756 760 768 772 777 782
807 810 823 824 813 793 787 784 784 786 787 781 778 774 772 766 759 751 747 745 741 736 734 733 729 723 715 706 697 705 713 717 725 733 739 744 749 753 758 764 770 775 780 785
795 800 798 800 786 791 787 785 783 782 780 778 775 773 770 766 759 752 747 745 742 739 736 734 727 721 708 697 693 700 709 717 726 733 740 745 749 754 761 768 773 777 782 788
796 798 798 800 790 787 783 781 778 777 776 776 773 770 769 764 757 753 751 746 743 739 738 735 728 725 711 697 696 702 710 718 726 734 740 745 750 756 764 770 775 780 785 787
792 790 793 791 779 779 778 774 773 776 776 774 773 769 764 763 758 755 750 747 744 741 738 735 729 724 708 705 703 705 713 719 727 734 740 746 752 760 766 772 778 784 788 793
Wind_Speed
1 2 6 11 8 3 2 4 7 4 8 5 9 15 11 9 9 10 13 11 9 10 13 21 26 24 19 20 29 36 35 38 36 34 32 27 27 25 24 23 21 21 21 18
3 7 9 5 3 4 4 4 6 6 8 4 8 16 11 10 8 6 7 11 15 16 19 16 21 29 25 24 26 31 36 36 40 37 37 31 31 28 25 21 20 22 21 20
5 4 6 4 2 3 3 5 5 11 3 3 5 8 4 4 4 6 8 10 13 17 18 17 14 18 25 26 28 29 35 40 38 35 35 27 28 21 20 20 20 19 17 16
5 5 3 3 5 6 3 8 11 7 2 2 2 6 6 3 5 10 15 16 17 19 19 16 16 18 21 22 24 29 32 35 35 41 38 41 31 21 22 29 23 19 17 15
5 2 3 4 4 5 8 1 3 3 4 1 3 1 7 4 5 9 15 16 17 18 17 18 18 24 26 20 19 25 26 31 34 42 40 38 30 28 25 23 20 19 17 14
5 1 3 4 5 3 5 3 3 3 1 3 5 7 7 3 4 6 11 14 17 19 20 19 25 25 24 24 9 15 24 27 32 33 38 36 35 29 25 26 24 20 16 13
3 1 4 4 4 2 6 3 2 3 1 6 1 2 6 5 6 5 10 13 14 17 20 22 23 22 25 23 18 5 14 19 26 34 32 34 34 32 28 29 27 23 18 15
4 4 4 6 2 1 3 1 3 6 3 4 5 5 2 6 3 3 8 12 16 19 19 21 22 25 27 24 12 4 8 13 19 26 34 29 26 26 26 25 24 21 17 14
5 4 2 2 3 2 1 3 1 0 3 1 4 3 3 4 10 12 14 15 17 17 17 18 23 32 29 23 9 1 7 11 17 20 24 26 19 18 20 20 18 17 14 13
3 2 1 1 1 6 4 0 2 2 1 4 5 5 4 7 9 12 15 14 13 14 18 18 17 27 34 24 9 6 11 15 16 18 21 22 20 11 16 18 18 17 15 15
3 1 2 1 6 2 3 1 4 2 1 3 4 5 5 5 6 10 12 13 12 11 11 13 15 22 24 27 11 4 12 17 17 18 16 21 19 16 17 19 18 15 14 12
1 3 2 2 4 5 2 2 3 3 3 2 1 8 4 6 11 12 13 14 13 12 11 11 14 17 20 25 18 3 9 14 16 18 17 16 19 20 19 18 16 13 12 12
6 2 3 2 1 3 2 1 3 3 2 5 3 7 4 17 23 27 24 15 14 13 13 10 10 12 15 16 24 9 8 12 15 19 22 20 21 20 19 17 15 14 13 10
4 1 3 4 3 4 2 3 3 5 2 4 10 22 16 19 20 20 22 16 12 16 13 11 8 8 14 14 20 11 9 14 16 18 20 22 22 21 19 17 13 10 8 7
3 3 3 2 1 3 6 6 6 7 6 4 15 15 21 19 18 19 19 18 16 18 14 10 8 7 11 14 13 20 17 15 18 20 21 22 21 19 17 13 8 6 7 7
2 3 1 2 3 3 8 10 9 12 12 9 18 23 18 15 13 16 16 14 13 16 16 13 6 7 9 11 12 22 16 21 22 23 20 20 18 16 13 12 11 9 8 8
4 5 3 2 3 5 5 6 5 2 4 6 7 14 12 20 21 21 19 12 12 16 14 12 10 8 11 12 13 10 9 25 25 24 22 20 17 16 14 12 12 11 12 11
5 4 2 2 2 2 4 2 4 8 7 7 6 11 17 17 20 21 16 16 17 15 13 10 6 12 17 17 14 11 8 19 25 24 23 20 18 18 15 14 14 15 15 16
1 4 2 3 2 6 6 1 3 2 6 6 7 11 14 15 13 6 18 11 13 11 9 7 10 17 22 15 15 11 13 21 22 23 22 22 21 20 17 18 19 20 21 23
5 5 3 3 4 4 4 4 1 3 4 6 10 10 12 13 12 8 20 19 7 5 2 6 12 17 15 15 13 18 15 22 21 23 24 23 22 21 21 23 24 25 28 28
3 3 4 2 2 7 9 7 2 3 5 8 5 7 9 4 3 7 13 13 12 8 9 9 7 12 16 17 13 16 21 21 24 24 25 24 22 23 24 26 28 29 30 29
7 6 3 3 2 7 5 1 4 5 5 5 9 5 10 11 10 13 10 12 9 6 7 12 16 20 22 21 13 11 18 24 28 27 26 25 24 25 27 30 29 29 31 31
2 6 5 8 6 4 4 4 4 2 5 5 5 12 10 12 10 11 6 7 6 10 7 10 17 24 26 30 24 23 23 31 30 29 26 27 26 28 30 31 31 26 27 26
2 3 3 3 5 8 9 6 6 4 4 6 7 9 8 8 11 8 6 7 6 11 11 9 20 27 33 40 23 29 29 33 31 27 27 28 28 27 28 24 27 26 25 24
4 6 5 4 7 6 8 8 8 4 6 5 7 5 6 8 9 6 6 7 9 13 13 10 20 24 30 15 22 28 32 34 29 28 27 26 26 28 25 21 21 23 23 32
5 6 5 6 7 4 5 3 3 2 7 6 5 8 7 4 8 6 7 9 11 12 13 15 19 21 33 7 13 23 28 33 31 26 25 25 26 25 26 26 22 18 22 25
Wind_Direction
341 159 204 208 200 136 149 214 251 256 270 284 260 279 277 278 282 285 284 310 310 300 292 291 291 278 262 245 234 227 219 219 218 212 199 198 203 206 210 213 218 208 202 204
359 257 234 220 184 205 202 265 270 272 251 177 270 281 279 268 264 269 352 336 339 327 322 304 295 292 267 251 229 223 216 207 210 207 202 196 197 206 212 205 205 211 214 209
179 262 59 155 252 251 248 230 231 250 308 264 291 289 194 292 282 32 21 355 349 336 327 325 324 314 297 259 228 215 212 207 203 197 193 184 190 192 186 190 194 195 199 200
233 271 254 196 221 193 262 237 251 261 45 241 69 290 304 306 336 20 6 355 350 342 336 340 338 339 327 292 242 219 208 199 193 200 184 186 179 173 192 194 194 194 195 198
254 337 304 241 229 161 229 293 257 250 199 232 182 132 272 341 301 5 350 351 349 348 344 344 343 339 341 330 258 221 206 196 190 196 190 182 178 182 188 180 184 188 192 201
248 10 45 299 317 338 324 292 29 29 158 278 196 178 278 324 9 342 343 354 350 348 351 351 355 348 345 353 311 231 200 193 192 185 188 180 183 177 168 174 181 188 190 193
329 48 338 12 327 28 18 78 312 296 212 240 130 180 246 76 39 345 336 347 356 358 354 353 354 350 346 360 343 259 201 186 187 181 184 186 190 181 174 179 180 179 185 195
198 261 11 329 72 294 15 30 178 235 215 268 326 241 150 99 88 360 352 356 9 4 357 354 352 351 351 348 349 312 188 170 178 182 182 183 186 181 180 181 179 181 190 187
170 251 247 51 40 329 326 77 120 106 303 47 243 277 169 32 25 16 10 4 1 2 355 355 347 355 347 338 355 16 161 160 176 180 173 158 170 182 172 170 176 174 176 176
196 258 287 307 167 31 62 203 132 81 259 247 290 273 224 28 13 3 1 5 354 351 353 351 348 348 346 332 347 95 128 129 138 143 142 134 136 171 182 168 166 166 164 166
133 129 323 322 35 32 345 36 52 84 57 210 288 265 125 74 19 350 337 341 341 346 342 337 333 337 341 339 332 105 120 122 124 129 126 136 139 173 158 157 158 161 163 170
139 126 54 324 306 223 156 118 99 138 201 203 190 270 120 335 323 323 322 317 322 324 325 324 323 332 335 340 325 281 136 133 132 124 123 123 147 151 146 152 155 158 165 161
169 157 134 321 352 55 96 121 115 111 83 209 159 258 318 335 321 315 313 311 309 311 309 307 318 320 324 330 343 265 186 163 146 143 147 155 151 146 144 143 142 146 147 148
100 132 196 186 136 126 165 210 141 130 137 220 238 277 291 284 283 288 293 301 293 298 294 293 301 301 298 314 354 269 206 169 156 152 151 152 146 143 143 143 144 157 173 189
132 169 240 271 210 179 210 226 208 193 213 205 279 271 276 282 284 281 286 286 282 283 282 260 281 272 298 312 330 342 202 173 162 152 152 149 148 145 140 138 145 150 151 169
26 137 112 287 324 262 277 258 240 235 251 250 259 272 278 281 287 282 272 272 269 271 276 273 261 265 265 290 317 349 189 177 172 157 157 150 148 142 135 137 143 137 142 138
132 138 122 279 342 313 275 224 179 189 197 209 266 290 328 308 301 290 280 270 260 263 270 274 274 280 296 286 297 345 282 168 164 160 160 156 151 140 136 147 139 142 137 134
127 126 94 176 285 27 250 294 197 232 250 250 284 308 296 298 298 298 293 267 262 256 260 259 272 290 279 270 280 286 337 166 157 157 161 161 156 144 155 150 142 144 137 136
81 117 82 125 177 295 309 87 164 211 295 193 277 301 301 317 310 286 344 320 260 240 248 239 263 281 278 284 285 310 306 164 154 156 161 163 163 155 156 147 144 138 132 124
76 68 110 72 109 233 240 245 196 131 277 246 325 324 321 343 354 336 333 336 357 136 195 288 302 298 281 273 277 305 201 157 155 164 165 165 164 159 153 145 135 129 126 119
88 22 151 164 196 279 247 255 307 98 246 303 300 298 311 332 223 272 320 327 339 317 346 348 339 327 308 296 276 265 169 164 163 164 163 164 164 160 153 142 136 132 123 117
158 143 181 92 122 273 205 164 159 220 283 276 306 301 316 312 292 272 283 307 310 316 347 349 7 337 329 322 267 215 177 156 159 160 158 159 159 153 147 140 134 130 126 119
155 180 178 177 209 238 225 187 234 228 247 282 291 303 309 307 303 288 309 317 321 337 331 1 7 341 328 330 270 178 164 151 153 153 150 153 150 148 148 141 134 127 123 120
249 159 189 123 246 231 247 263 252 233 248 293 285 287 303 298 309 300 319 323 333 340 352 17 15 350 336 326 148 150 147 151 148 144 143 145 139 136 140 136 138 134 132 126
194 141 175 268 280 277 272 230 247 292 308 320 308 288 293 308 311 313 330 331 340 341 353 29 29 343 320 328 129 143 145 148 142 141 139 136 134 134 133 131 134 138 143 149
188 181 169 217 216 172 242 296 147 243 293 305 296 308 304 289 305 321 325 335 347 338 12 23 25 331 323 77 121 136 146 148 142 138 137 135 132 131 131 129 112 134 148 153